Time,TemperatureF,DewpointF,PressureIn,WindDirection,WindDirectionDegrees,WindSpeedMPH,WindSpeedGustMPH,Humidity,HourlyPrecipIn,Conditions,Clouds,dailyrainin,SoftwareType,DateUTC
2013-11-22 00:00:00,55.9,51.8,30.29,SSW,202,0.0,1.0,86,0.00,,---,0.00,VWS V14.01,2013-11-22 05:00:00,
2013-11-22 00:01:00,55.9,51.8,30.29,SW,222,0.0,1.0,86,0.00,,---,0.00,VWS V14.01,2013-11-22 05:01:00,
2013-11-22 00:02:00,55.9,51.8,30.30,WSW,248,0.0,1.0,86,0.00,,---,0.00,VWS V14.01,2013-11-22 05:02:00,
2013-11-22 00:05:00,56.2,51.8,30.29,SW,224,2.0,7.0,85,0.00,,---,0.00,VWS V14.01,2013-11-22 05:05:00,
2013-11-22 00:07:00,55.9,51.8,30.30,WSW,243,2.0,3.0,86,0.00,,---,0.00,VWS V14.01,2013-11-22 05:07:00,
2013-11-22 00:10:00,56.2,51.8,30.29,WSW,238,0.0,5.0,85,0.00,,---,0.00,VWS V14.01,2013-11-22 05:10:00,
2013-11-22 00:12:00,55.9,51.8,30.30,South,191,0.0,4.0,86,0.00,,---,0.00,VWS V14.01,2013-11-22 05:12:00,
2013-11-22 00:15:00,56.2,51.8,30.29,South,184,5.0,6.0,85,0.00,,---,0.00,VWS V14.01,2013-11-22 05:15:00,
2013-11-22 00:17:00,55.9,51.8,30.30,SW,231,4.0,4.0,86,0.00,,---,0.00,VWS V14.01,2013-11-22 05:17:00,
2013-11-22 00:20:00,56.1,51.7,30.29,West,263,1.0,5.0,85,0.00,,---,0.00,VWS V14.01,2013-11-22 05:20:00,
2013-11-22 00:22:00,55.8,51.7,30.30,West,260,0.0,4.0,86,0.00,,---,0.00,VWS V14.01,2013-11-22 05:22:00,
2013-11-22 00:25:00,56.1,51.7,30.29,SSW,212,0.0,5.0,85,0.00,,---,0.00,VWS V14.01,2013-11-22 05:25:00,
2013-11-22 00:27:00,55.8,51.7,30.30,WSW,239,2.0,2.0,86,0.00,,---,0.00,VWS V14.01,2013-11-22 05:27:00,
2013-11-22 00:30:00,56.1,51.7,30.29,SE,146,2.0,5.0,85,0.00,,---,0.00,VWS V14.01,2013-11-22 05:30:00,
2013-11-22 00:32:00,55.8,52.0,30.30,SW,226,0.0,2.0,87,0.00,,---,0.00,VWS V14.01,2013-11-22 05:32:00,
2013-11-22 00:35:00,56.1,51.7,30.29,SE,133,4.0,6.0,85,0.00,,---,0.00,VWS V14.01,2013-11-22 05:35:00,
2013-11-22 00:37:00,55.8,52.0,30.30,SSW,211,3.0,3.0,87,0.00,,---,0.00,VWS V14.01,2013-11-22 05:37:00,
2013-11-22 00:40:00,56.0,51.6,30.29,SW,229,4.0,7.0,85,0.00,,---,0.00,VWS V14.01,2013-11-22 05:40:00,
2013-11-22 00:42:00,55.8,52.0,30.30,WSW,239,2.0,3.0,87,0.00,,---,0.00,VWS V14.01,2013-11-22 05:42:00,
2013-11-22 00:45:00,56.0,51.6,30.29,West,270,2.0,4.0,85,0.00,,---,0.00,VWS V14.01,2013-11-22 05:45:00,
2013-11-22 00:47:00,55.7,51.9,30.30,SSW,202,3.0,8.0,87,0.00,,---,0.00,VWS V14.01,2013-11-22 05:47:00,
2013-11-22 00:50:00,56.0,51.9,30.30,WSW,245,3.0,4.0,86,0.00,,---,0.00,VWS V14.01,2013-11-22 05:50:00,
2013-11-22 00:52:00,55.7,51.9,30.30,WSW,250,0.0,6.0,87,0.00,,---,0.00,VWS V14.01,2013-11-22 05:52:00,
2013-11-22 00:55:00,55.9,51.8,30.30,WSW,245,0.0,5.0,86,0.00,,---,0.00,VWS V14.01,2013-11-22 05:55:00,
2013-11-22 00:57:00,55.7,51.9,30.30,SSW,197,0.0,4.0,87,0.00,,---,0.00,VWS V14.01,2013-11-22 05:57:00,
2013-11-22 01:00:00,55.9,51.8,30.29,SSE,147,0.0,2.0,86,0.00,,---,0.00,VWS V14.01,2013-11-22 06:00:00,
2013-11-22 01:02:00,55.6,51.8,30.30,SW,226,5.0,6.0,87,0.00,,---,0.00,VWS V14.01,2013-11-22 06:02:00,
2013-11-22 01:05:00,55.9,51.8,30.30,WSW,238,1.0,5.0,86,0.00,,---,0.00,VWS V14.01,2013-11-22 06:05:00,
2013-11-22 01:07:00,55.6,52.1,30.30,SW,229,2.0,5.0,88,0.00,,---,0.00,VWS V14.01,2013-11-22 06:07:00,
2013-11-22 01:10:00,55.9,51.8,30.30,SW,229,4.0,4.0,86,0.00,,---,0.00,VWS V14.01,2013-11-22 06:10:00,
2013-11-22 01:12:00,55.5,52.0,30.30,SW,236,4.0,5.0,88,0.00,,---,0.00,VWS V14.01,2013-11-22 06:12:00,
2013-11-22 01:15:00,55.9,51.8,30.30,WSW,257,2.0,4.0,86,0.00,,---,0.00,VWS V14.01,2013-11-22 06:15:00,
2013-11-22 01:17:00,55.5,52.0,30.30,WSW,244,4.0,6.0,88,0.00,,---,0.00,VWS V14.01,2013-11-22 06:17:00,
2013-11-22 01:20:00,55.9,51.8,30.30,WSW,257,3.0,7.0,86,0.00,,---,0.00,VWS V14.01,2013-11-22 06:20:00,
2013-11-22 01:22:00,55.5,52.0,30.29,SW,216,2.0,4.0,88,0.00,,---,0.00,VWS V14.01,2013-11-22 06:22:00,
2013-11-22 01:25:00,55.8,51.7,30.30,West,267,0.0,4.0,86,0.00,,---,0.00,VWS V14.01,2013-11-22 06:25:00,
2013-11-22 01:27:00,55.4,51.9,30.29,WSW,255,3.0,5.0,88,0.00,,---,0.00,VWS V14.01,2013-11-22 06:27:00,
2013-11-22 01:30:00,55.8,52.0,30.30,SSW,208,1.0,4.0,87,0.00,,---,0.00,VWS V14.01,2013-11-22 06:30:00,
2013-11-22 01:32:00,55.4,51.9,30.29,WSW,245,1.0,5.0,88,0.00,,---,0.00,VWS V14.01,2013-11-22 06:32:00,
2013-11-22 01:35:00,55.8,52.0,30.30,SW,236,0.0,2.0,87,0.00,,---,0.00,VWS V14.01,2013-11-22 06:35:00,
2013-11-22 01:37:00,55.3,51.8,30.29,SW,223,4.0,4.0,88,0.00,,---,0.00,VWS V14.01,2013-11-22 06:37:00,
2013-11-22 01:40:00,55.8,52.0,30.30,WSW,250,0.0,3.0,87,0.00,,---,0.00,VWS V14.01,2013-11-22 06:40:00,
2013-11-22 01:42:00,55.3,51.8,30.29,SW,236,3.0,4.0,88,0.00,,---,0.00,VWS V14.01,2013-11-22 06:42:00,
2013-11-22 01:45:00,55.7,51.9,30.30,WSW,238,3.0,8.0,87,0.00,,---,0.00,VWS V14.01,2013-11-22 06:45:00,
2013-11-22 01:47:00,55.2,51.7,30.29,South,172,1.0,6.0,88,0.00,,---,0.00,VWS V14.01,2013-11-22 06:47:00,
2013-11-22 01:50:00,55.7,51.9,30.30,SW,231,4.0,8.0,87,0.00,,---,0.00,VWS V14.01,2013-11-22 06:50:00,
2013-11-22 01:52:00,55.2,51.7,30.29,South,181,3.0,4.0,88,0.00,,---,0.00,VWS V14.01,2013-11-22 06:52:00,
2013-11-22 01:55:00,55.7,51.9,30.30,SW,219,1.0,6.0,87,0.00,,---,0.00,VWS V14.01,2013-11-22 06:55:00,
2013-11-22 01:57:00,55.1,51.9,30.29,SSE,150,1.0,4.0,89,0.00,,---,0.00,VWS V14.01,2013-11-22 06:57:00,
2013-11-22 02:00:00,55.7,51.9,30.30,West,272,5.0,5.0,87,0.00,,---,0.00,VWS V14.01,2013-11-22 07:00:00,
2013-11-22 02:02:00,55.1,51.9,30.29,South,188,1.0,5.0,89,0.00,,---,0.00,VWS V14.01,2013-11-22 07:02:00,
2013-11-22 02:05:00,55.6,51.8,30.30,WSW,244,2.0,6.0,87,0.00,,---,0.00,VWS V14.01,2013-11-22 07:05:00,
2013-11-22 02:07:00,55.1,51.9,30.29,SSW,209,1.0,7.0,89,0.00,,---,0.00,VWS V14.01,2013-11-22 07:07:00,
2013-11-22 02:10:00,55.6,52.1,30.30,South,188,2.0,5.0,88,0.00,,---,0.00,VWS V14.01,2013-11-22 07:10:00,
2013-11-22 02:12:00,55.1,51.9,30.29,SW,233,1.0,3.0,89,0.00,,---,0.00,VWS V14.01,2013-11-22 07:12:00,
2013-11-22 02:15:00,55.5,52.0,30.30,WSW,239,3.0,6.0,88,0.00,,---,0.00,VWS V14.01,2013-11-22 07:15:00,
2013-11-22 02:17:00,55.0,51.8,30.29,WSW,248,5.0,5.0,89,0.00,,---,0.00,VWS V14.01,2013-11-22 07:17:00,
2013-11-22 02:20:00,55.5,52.0,30.29,SSW,203,2.0,6.0,88,0.00,,---,0.00,VWS V14.01,2013-11-22 07:20:00,
2013-11-22 02:22:00,55.0,51.8,30.29,South,178,1.0,6.0,89,0.00,,---,0.00,VWS V14.01,2013-11-22 07:22:00,
2013-11-22 02:25:00,55.5,52.0,30.29,South,176,2.0,4.0,88,0.00,,---,0.00,VWS V14.01,2013-11-22 07:25:00,
2013-11-22 02:27:00,54.9,51.7,30.29,East,94,3.0,5.0,89,0.00,,---,0.00,VWS V14.01,2013-11-22 07:27:00,
2013-11-22 02:30:00,55.4,51.9,30.29,SW,232,0.0,5.0,88,0.00,,---,0.00,VWS V14.01,2013-11-22 07:30:00,
2013-11-22 02:32:00,54.9,51.7,30.29,WSW,242,0.0,6.0,89,0.00,,---,0.00,VWS V14.01,2013-11-22 07:32:00,
2013-11-22 02:35:00,55.4,51.9,30.29,South,170,2.0,5.0,88,0.00,,---,0.00,VWS V14.01,2013-11-22 07:35:00,
2013-11-22 02:37:00,54.9,51.7,30.30,SW,234,4.0,5.0,89,0.00,,---,0.00,VWS V14.01,2013-11-22 07:37:00,
2013-11-22 02:40:00,55.3,51.8,30.29,SE,139,2.0,4.0,88,0.00,,---,0.00,VWS V14.01,2013-11-22 07:40:00,
2013-11-22 02:42:00,54.9,51.7,30.29,SSW,213,0.0,5.0,89,0.00,,---,0.00,VWS V14.01,2013-11-22 07:42:00,
2013-11-22 02:45:00,55.3,51.8,30.29,South,169,2.0,4.0,88,0.00,,---,0.00,VWS V14.01,2013-11-22 07:45:00,
2013-11-22 02:48:00,54.8,51.9,30.29,South,172,3.0,4.0,90,0.00,,---,0.00,VWS V14.01,2013-11-22 07:48:00,
2013-11-22 02:50:00,55.2,51.7,30.29,SSE,162,3.0,6.0,88,0.00,,---,0.00,VWS V14.01,2013-11-22 07:50:00,
2013-11-22 02:53:00,54.8,51.9,30.29,SW,235,1.0,3.0,90,0.00,,---,0.00,VWS V14.01,2013-11-22 07:53:00,
2013-11-22 02:55:00,55.2,52.0,30.29,SSE,152,2.0,4.0,89,0.00,,---,0.00,VWS V14.01,2013-11-22 07:55:00,
2013-11-22 02:58:00,54.7,51.8,30.29,WSW,252,1.0,3.0,90,0.00,,---,0.00,VWS V14.01,2013-11-22 07:58:00,
2013-11-22 03:00:00,55.1,51.9,30.29,WSW,241,0.0,4.0,89,0.00,,---,0.00,VWS V14.01,2013-11-22 08:00:00,
2013-11-22 03:03:00,54.7,51.8,30.29,SSW,198,3.0,7.0,90,0.00,,---,0.00,VWS V14.01,2013-11-22 08:03:00,
2013-11-22 03:05:00,55.1,51.9,30.29,South,181,0.0,5.0,89,0.00,,---,0.00,VWS V14.01,2013-11-22 08:05:00,
2013-11-22 03:08:00,54.6,52.0,30.29,WSW,238,2.0,8.0,91,0.00,,---,0.00,VWS V14.01,2013-11-22 08:08:00,
2013-11-22 03:10:00,55.1,51.9,30.29,WSW,245,0.0,7.0,89,0.00,,---,0.00,VWS V14.01,2013-11-22 08:10:00,
2013-11-22 03:13:00,54.5,51.9,30.28,SSW,205,2.0,5.0,91,0.00,,---,0.00,VWS V14.01,2013-11-22 08:13:00,
2013-11-22 03:15:00,55.0,51.8,30.29,SSW,198,1.0,3.0,89,0.00,,---,0.00,VWS V14.01,2013-11-22 08:15:00,
2013-11-22 03:18:00,54.5,51.9,30.28,SSE,164,1.0,5.0,91,0.00,,---,0.00,VWS V14.01,2013-11-22 08:18:00,
2013-11-22 03:20:00,55.0,51.8,30.29,SW,224,2.0,5.0,89,0.00,,---,0.00,VWS V14.01,2013-11-22 08:20:00,
2013-11-22 03:23:00,54.4,51.8,30.28,South,184,2.0,4.0,91,0.00,,---,0.00,VWS V14.01,2013-11-22 08:23:00,
2013-11-22 03:25:00,55.0,51.8,30.29,SSE,159,1.0,6.0,89,0.00,,---,0.00,VWS V14.01,2013-11-22 08:25:00,
2013-11-22 03:28:00,54.2,51.9,30.27,SSE,158,2.0,4.0,92,0.00,,---,0.00,VWS V14.01,2013-11-22 08:28:00,
2013-11-22 03:30:00,54.9,51.7,30.29,WNW,295,1.0,7.0,89,0.00,,---,0.00,VWS V14.01,2013-11-22 08:30:00,
2013-11-22 03:33:00,54.1,51.8,30.27,SW,219,2.0,7.0,92,0.00,,---,0.00,VWS V14.01,2013-11-22 08:33:00,
2013-11-22 03:35:00,54.9,51.7,30.29,WSW,243,0.0,6.0,89,0.00,,---,0.00,VWS V14.01,2013-11-22 08:35:00,
2013-11-22 03:38:00,53.9,51.9,30.27,WSW,246,1.0,4.0,93,0.00,,---,0.00,VWS V14.01,2013-11-22 08:38:00,
2013-11-22 03:40:00,54.9,51.7,30.29,WSW,237,2.0,5.0,89,0.00,,---,0.00,VWS V14.01,2013-11-22 08:40:00,
2013-11-22 03:43:00,53.7,51.7,30.27,SE,146,1.0,5.0,93,0.00,,---,0.00,VWS V14.01,2013-11-22 08:43:00,
2013-11-22 03:45:00,54.9,51.7,30.29,SSE,153,3.0,5.0,89,0.00,,---,0.00,VWS V14.01,2013-11-22 08:45:00,
2013-11-22 03:48:00,53.6,51.9,30.27,West,271,1.0,5.0,94,0.01,,---,0.01,VWS V14.01,2013-11-22 08:48:00,
2013-11-22 03:50:00,54.8,51.9,30.29,SE,138,1.0,4.0,90,0.00,,---,0.00,VWS V14.01,2013-11-22 08:50:00,
2013-11-22 03:53:00,53.4,51.7,30.27,WSW,248,3.0,7.0,94,0.02,,---,0.02,VWS V14.01,2013-11-22 08:53:00,
2013-11-22 03:55:00,54.8,51.9,30.29,SSE,155,2.0,4.0,90,0.00,,---,0.00,VWS V14.01,2013-11-22 08:55:00,
2013-11-22 03:58:00,53.3,51.9,30.27,SE,141,1.0,4.0,95,0.03,,---,0.03,VWS V14.01,2013-11-22 08:58:00,
2013-11-22 04:00:00,54.7,51.8,30.29,South,176,4.0,4.0,90,0.00,,---,0.00,VWS V14.01,2013-11-22 09:00:00,
2013-11-22 04:03:00,53.2,51.8,30.26,WSW,244,1.0,3.0,95,0.04,,---,0.04,VWS V14.01,2013-11-22 09:03:00,
2013-11-22 04:05:00,54.6,51.7,30.29,SE,145,5.0,9.0,90,0.00,,---,0.00,VWS V14.01,2013-11-22 09:05:00,
2013-11-22 04:08:00,53.1,52.0,30.27,WSW,253,1.0,4.0,96,0.05,,---,0.05,VWS V14.01,2013-11-22 09:08:00,
2013-11-22 04:10:00,54.6,52.0,30.29,SW,229,5.0,8.0,91,0.00,,---,0.00,VWS V14.01,2013-11-22 09:10:00,
2013-11-22 04:13:00,53.0,51.9,30.27,SW,232,0.0,3.0,96,0.05,,---,0.05,VWS V14.01,2013-11-22 09:13:00,
2013-11-22 04:15:00,54.5,51.9,30.28,WSW,237,3.0,5.0,91,0.00,,---,0.00,VWS V14.01,2013-11-22 09:15:00,
2013-11-22 04:18:00,52.9,51.8,30.26,SW,217,2.0,4.0,96,0.06,,---,0.06,VWS V14.01,2013-11-22 09:18:00,
2013-11-22 04:20:00,54.5,51.9,30.28,SSW,197,1.0,5.0,91,0.00,,---,0.00,VWS V14.01,2013-11-22 09:20:00,
2013-11-22 04:23:00,52.9,51.8,30.27,WSW,240,1.0,4.0,96,0.06,,---,0.06,VWS V14.01,2013-11-22 09:23:00,
2013-11-22 04:25:00,54.3,52.0,30.28,SW,223,3.0,4.0,92,0.00,,---,0.00,VWS V14.01,2013-11-22 09:25:00,
2013-11-22 04:28:00,52.8,51.7,30.27,West,267,1.0,4.0,96,0.06,,---,0.06,VWS V14.01,2013-11-22 09:28:00,
2013-11-22 04:30:00,54.2,51.9,30.27,WSW,251,0.0,5.0,92,0.00,,---,0.00,VWS V14.01,2013-11-22 09:30:00,
2013-11-22 04:33:00,52.8,52.0,30.27,WSW,241,0.0,4.0,97,0.06,,---,0.06,VWS V14.01,2013-11-22 09:33:00,
2013-11-22 04:35:00,54.0,52.0,30.27,SSW,199,0.0,7.0,93,0.00,,---,0.00,VWS V14.01,2013-11-22 09:35:00,
2013-11-22 04:38:00,52.8,52.0,30.27,SW,214,3.0,4.0,97,0.06,,---,0.06,VWS V14.01,2013-11-22 09:38:00,
2013-11-22 04:40:00,53.8,51.8,30.27,WSW,237,1.0,6.0,93,0.00,,---,0.00,VWS V14.01,2013-11-22 09:40:00,
2013-11-22 04:43:00,52.8,52.0,30.27,SW,229,2.0,3.0,97,0.06,,---,0.06,VWS V14.01,2013-11-22 09:43:00,
2013-11-22 04:45:00,53.7,52.0,30.27,SW,214,0.0,5.0,94,0.01,,---,0.01,VWS V14.01,2013-11-22 09:45:00,
2013-11-22 04:48:00,52.8,52.0,30.27,SW,215,1.0,4.0,97,0.05,,---,0.06,VWS V14.01,2013-11-22 09:48:00,
2013-11-22 04:50:00,53.5,51.8,30.27,SW,231,5.0,6.0,94,0.01,,---,0.01,VWS V14.01,2013-11-22 09:50:00,
2013-11-22 04:53:00,52.8,52.0,30.27,WSW,250,2.0,4.0,97,0.05,,---,0.06,VWS V14.01,2013-11-22 09:53:00,
2013-11-22 04:55:00,53.4,52.0,30.27,South,184,3.0,8.0,95,0.02,,---,0.02,VWS V14.01,2013-11-22 09:55:00,
2013-11-22 04:58:00,52.7,51.9,30.27,SW,232,2.0,3.0,97,0.04,,---,0.06,VWS V14.01,2013-11-22 09:58:00,
2013-11-22 05:00:00,53.3,51.9,30.27,SW,219,1.0,7.0,95,0.04,,---,0.04,VWS V14.01,2013-11-22 10:00:00,
2013-11-22 05:03:00,52.7,51.9,30.27,SSW,209,0.0,6.0,97,0.02,,---,0.06,VWS V14.01,2013-11-22 10:03:00,
2013-11-22 05:05:00,53.2,51.8,30.26,WSW,253,2.0,5.0,95,0.04,,---,0.04,VWS V14.01,2013-11-22 10:05:00,
2013-11-22 05:08:00,52.7,51.9,30.26,SW,214,1.0,4.0,97,0.02,,---,0.06,VWS V14.01,2013-11-22 10:08:00,
2013-11-22 05:10:00,53.0,51.9,30.27,SW,233,3.0,5.0,96,0.05,,---,0.05,VWS V14.01,2013-11-22 10:10:00,
2013-11-22 05:13:00,52.7,51.9,30.26,West,279,0.0,2.0,97,0.01,,---,0.06,VWS V14.01,2013-11-22 10:13:00,
2013-11-22 05:15:00,52.9,51.8,30.27,SSE,147,0.0,3.0,96,0.06,,---,0.06,VWS V14.01,2013-11-22 10:15:00,
2013-11-22 05:18:00,52.7,51.9,30.26,WSW,248,4.0,5.0,97,0.00,,---,0.06,VWS V14.01,2013-11-22 10:18:00,
2013-11-22 05:20:00,52.9,51.8,30.27,South,190,1.0,4.0,96,0.06,,---,0.06,VWS V14.01,2013-11-22 10:20:00,
2013-11-22 05:23:00,52.6,51.8,30.26,NW,304,2.0,2.0,97,0.00,,---,0.06,VWS V14.01,2013-11-22 10:23:00,
2013-11-22 05:25:00,52.8,51.7,30.26,WSW,240,4.0,5.0,96,0.06,,---,0.06,VWS V14.01,2013-11-22 10:25:00,
2013-11-22 05:28:00,52.6,51.8,30.26,SSE,156,0.0,1.0,97,0.00,,---,0.06,VWS V14.01,2013-11-22 10:28:00,
2013-11-22 05:30:00,52.8,51.7,30.27,SW,224,0.0,4.0,96,0.06,,---,0.06,VWS V14.01,2013-11-22 10:30:00,
2013-11-22 05:33:00,52.6,51.8,30.26,West,259,0.0,3.0,97,0.00,,---,0.06,VWS V14.01,2013-11-22 10:33:00,
2013-11-22 05:35:00,52.8,52.0,30.27,SW,228,3.0,5.0,97,0.06,,---,0.06,VWS V14.01,2013-11-22 10:35:00,
2013-11-22 05:38:00,52.6,51.8,30.26,SSE,158,0.0,4.0,97,0.00,,---,0.06,VWS V14.01,2013-11-22 10:38:00,
2013-11-22 05:40:00,52.8,52.0,30.27,South,179,1.0,4.0,97,0.06,,---,0.06,VWS V14.01,2013-11-22 10:40:00,
2013-11-22 05:43:00,52.6,52.0,30.26,WSW,252,1.0,4.0,98,0.01,,---,0.07,VWS V14.01,2013-11-22 10:43:00,
2013-11-22 05:45:00,52.8,52.0,30.27,SW,230,3.0,3.0,97,0.06,,---,0.06,VWS V14.01,2013-11-22 10:45:00,
2013-11-22 05:48:00,52.6,52.0,30.26,WSW,237,3.0,4.0,98,0.01,,---,0.07,VWS V14.01,2013-11-22 10:48:00,
2013-11-22 05:50:00,52.8,52.0,30.27,SW,224,2.0,4.0,97,0.05,,---,0.06,VWS V14.01,2013-11-22 10:50:00,
2013-11-22 05:53:00,52.6,52.0,30.26,SW,231,3.0,6.0,98,0.01,,---,0.07,VWS V14.01,2013-11-22 10:53:00,
2013-11-22 05:55:00,52.8,52.0,30.27,SW,229,0.0,4.0,97,0.05,,---,0.06,VWS V14.01,2013-11-22 10:55:00,
2013-11-22 05:58:00,52.6,52.0,30.26,West,259,2.0,5.0,98,0.01,,---,0.07,VWS V14.01,2013-11-22 10:58:00,
2013-11-22 06:00:00,52.7,51.9,30.27,WSW,249,1.0,4.0,97,0.04,,---,0.06,VWS V14.01,2013-11-22 11:00:00,
2013-11-22 06:03:00,52.6,52.0,30.25,SW,231,0.0,4.0,98,0.01,,---,0.07,VWS V14.01,2013-11-22 11:03:00,
2013-11-22 06:05:00,52.7,51.9,30.27,SW,231,1.0,6.0,97,0.02,,---,0.06,VWS V14.01,2013-11-22 11:05:00,
2013-11-22 06:08:00,52.6,52.0,30.25,WSW,240,0.0,4.0,98,0.01,,---,0.07,VWS V14.01,2013-11-22 11:08:00,
2013-11-22 06:10:00,52.7,51.9,30.26,WSW,252,0.0,4.0,97,0.02,,---,0.06,VWS V14.01,2013-11-22 11:10:00,
2013-11-22 06:13:00,52.6,52.0,30.25,SE,146,2.0,5.0,98,0.01,,---,0.07,VWS V14.01,2013-11-22 11:13:00,
2013-11-22 06:15:00,52.7,51.9,30.26,WSW,247,2.0,2.0,97,0.01,,---,0.06,VWS V14.01,2013-11-22 11:15:00,
2013-11-22 06:18:00,52.7,52.2,30.25,SSE,149,4.0,7.0,98,0.01,,---,0.07,VWS V14.01,2013-11-22 11:18:00,
2013-11-22 06:20:00,52.7,51.9,30.26,SW,235,0.0,5.0,97,0.00,,---,0.06,VWS V14.01,2013-11-22 11:20:00,
2013-11-22 06:23:00,52.7,52.2,30.25,South,187,3.0,8.0,98,0.01,,---,0.07,VWS V14.01,2013-11-22 11:23:00,
2013-11-22 06:25:00,52.6,51.8,30.27,SSW,207,0.0,2.0,97,0.00,,---,0.06,VWS V14.01,2013-11-22 11:25:00,
2013-11-22 06:28:00,52.6,52.0,30.25,SW,221,2.0,6.0,98,0.01,,---,0.07,VWS V14.01,2013-11-22 11:28:00,
2013-11-22 06:30:00,52.6,51.8,30.26,WSW,241,1.0,2.0,97,0.00,,---,0.06,VWS V14.01,2013-11-22 11:30:00,
2013-11-22 06:33:00,52.7,52.2,30.25,WSW,245,1.0,5.0,98,0.01,,---,0.07,VWS V14.01,2013-11-22 11:33:00,
2013-11-22 06:35:00,52.6,51.8,30.26,South,174,1.0,3.0,97,0.00,,---,0.06,VWS V14.01,2013-11-22 11:35:00,
2013-11-22 06:38:00,52.6,52.0,30.26,WSW,255,2.0,6.0,98,0.01,,---,0.07,VWS V14.01,2013-11-22 11:38:00,
2013-11-22 06:40:00,52.6,51.8,30.26,SW,218,1.0,4.0,97,0.00,,---,0.06,VWS V14.01,2013-11-22 11:40:00,
2013-11-22 06:43:00,52.7,52.2,30.26,SW,221,0.0,5.0,98,0.01,,---,0.07,VWS V14.01,2013-11-22 11:43:00,
2013-11-22 06:45:00,52.6,52.0,30.26,SSW,207,0.0,4.0,98,0.01,,---,0.07,VWS V14.01,2013-11-22 11:45:00,
2013-11-22 06:48:00,52.7,52.2,30.26,WSW,257,0.0,10.0,98,0.00,,---,0.07,VWS V14.01,2013-11-22 11:48:00,
2013-11-22 06:50:00,52.6,52.0,30.26,WSW,246,3.0,4.0,98,0.01,,---,0.07,VWS V14.01,2013-11-22 11:50:00,
2013-11-22 06:53:00,52.7,52.2,30.26,SSW,211,2.0,4.0,98,0.00,,---,0.07,VWS V14.01,2013-11-22 11:53:00,
2013-11-22 06:55:00,52.6,52.0,30.26,West,260,0.0,6.0,98,0.01,,---,0.07,VWS V14.01,2013-11-22 11:55:00,
2013-11-22 06:58:00,52.7,52.2,30.26,SSW,210,3.0,6.0,98,0.00,,---,0.07,VWS V14.01,2013-11-22 11:58:00,
2013-11-22 07:00:00,52.6,52.0,30.26,SSW,201,3.0,5.0,98,0.01,,---,0.07,VWS V14.01,2013-11-22 12:00:00,
2013-11-22 07:03:00,52.7,52.2,30.26,SW,214,2.0,7.0,98,0.00,,---,0.07,VWS V14.01,2013-11-22 12:03:00,
2013-11-22 07:05:00,52.6,52.0,30.25,SSW,207,0.0,4.0,98,0.01,,---,0.07,VWS V14.01,2013-11-22 12:05:00,
2013-11-22 07:08:00,52.7,52.2,30.26,SE,143,1.0,4.0,98,0.00,,---,0.07,VWS V14.01,2013-11-22 12:08:00,
2013-11-22 07:10:00,52.6,52.0,30.25,SSW,195,1.0,4.0,98,0.01,,---,0.07,VWS V14.01,2013-11-22 12:10:00,
2013-11-22 07:13:00,52.7,52.2,30.26,SSW,207,1.0,5.0,98,0.00,,---,0.07,VWS V14.01,2013-11-22 12:13:00,
2013-11-22 07:15:00,52.7,52.2,30.25,SSW,195,2.0,5.0,98,0.01,,---,0.07,VWS V14.01,2013-11-22 12:15:00,
2013-11-22 07:18:00,52.7,52.2,30.26,South,171,1.0,10.0,98,0.00,,---,0.07,VWS V14.01,2013-11-22 12:18:00,
2013-11-22 07:20:00,52.7,52.2,30.25,South,188,2.0,7.0,98,0.01,,---,0.07,VWS V14.01,2013-11-22 12:20:00,
2013-11-22 07:23:00,52.7,52.2,30.26,WSW,245,1.0,6.0,98,0.00,,---,0.07,VWS V14.01,2013-11-22 12:23:00,
2013-11-22 07:25:00,52.6,52.0,30.25,West,269,0.0,8.0,98,0.01,,---,0.07,VWS V14.01,2013-11-22 12:25:00,
2013-11-22 07:28:00,52.7,52.2,30.27,West,274,4.0,6.0,98,0.00,,---,0.07,VWS V14.01,2013-11-22 12:28:00,
2013-11-22 07:30:00,52.7,52.2,30.25,West,259,3.0,6.0,98,0.01,,---,0.07,VWS V14.01,2013-11-22 12:30:00,
2013-11-22 07:33:00,52.7,52.2,30.27,West,275,1.0,2.0,98,0.00,,---,0.07,VWS V14.01,2013-11-22 12:33:00,
2013-11-22 07:35:00,52.7,52.2,30.25,WSW,251,2.0,7.0,98,0.01,,---,0.07,VWS V14.01,2013-11-22 12:35:00,
2013-11-22 07:38:00,52.7,52.2,30.26,South,181,0.0,6.0,98,0.00,,---,0.07,VWS V14.01,2013-11-22 12:38:00,
2013-11-22 07:40:00,52.7,52.2,30.26,WSW,245,1.0,6.0,98,0.01,,---,0.07,VWS V14.01,2013-11-22 12:40:00,
2013-11-22 07:43:00,52.7,52.2,30.27,West,264,2.0,4.0,98,0.00,,---,0.07,VWS V14.01,2013-11-22 12:43:00,
2013-11-22 07:45:00,52.7,52.2,30.26,SW,229,2.0,10.0,98,0.01,,---,0.07,VWS V14.01,2013-11-22 12:45:00,
2013-11-22 07:48:00,52.7,52.2,30.27,WSW,248,3.0,3.0,98,0.00,,---,0.07,VWS V14.01,2013-11-22 12:48:00,
2013-11-22 07:50:00,52.7,52.2,30.25,WSW,250,1.0,10.0,98,0.00,,---,0.07,VWS V14.01,2013-11-22 12:50:00,
2013-11-22 07:53:00,52.8,52.2,30.26,WSW,240,0.0,4.0,98,0.00,,---,0.07,VWS V14.01,2013-11-22 12:53:00,
2013-11-22 07:55:00,52.6,52.0,30.26,SSW,209,2.0,4.0,98,0.00,,---,0.07,VWS V14.01,2013-11-22 12:55:00,
2013-11-22 07:58:00,52.8,52.2,30.26,West,259,1.0,5.0,98,0.00,,---,0.07,VWS V14.01,2013-11-22 12:58:00,
2013-11-22 08:00:00,52.7,52.2,30.26,SW,236,1.0,6.0,98,0.00,,---,0.07,VWS V14.01,2013-11-22 13:00:00,
2013-11-22 08:03:00,52.8,52.2,30.26,South,172,3.0,6.0,98,0.00,,---,0.07,VWS V14.01,2013-11-22 13:03:00,
2013-11-22 08:05:00,52.7,52.2,30.26,SW,217,1.0,7.0,98,0.00,,---,0.07,VWS V14.01,2013-11-22 13:05:00,
2013-11-22 08:08:00,52.8,52.2,30.26,West,262,0.0,6.0,98,0.00,,---,0.07,VWS V14.01,2013-11-22 13:08:00,
2013-11-22 08:10:00,52.7,52.2,30.26,West,259,2.0,4.0,98,0.00,,---,0.07,VWS V14.01,2013-11-22 13:10:00,
2013-11-22 08:13:00,52.8,52.2,30.26,SW,223,3.0,6.0,98,0.00,,---,0.07,VWS V14.01,2013-11-22 13:13:00,
2013-11-22 08:15:00,52.7,52.2,30.26,SW,234,10.0,11.0,98,0.00,,---,0.07,VWS V14.01,2013-11-22 13:15:00,
2013-11-22 08:18:00,52.8,52.2,30.26,SW,218,0.0,4.0,98,0.00,,---,0.07,VWS V14.01,2013-11-22 13:18:00,
2013-11-22 08:20:00,52.7,52.2,30.26,SE,139,0.0,10.0,98,0.00,,---,0.07,VWS V14.01,2013-11-22 13:20:00,
2013-11-22 08:23:00,52.9,52.3,30.26,WSW,253,2.0,4.0,98,0.00,,---,0.07,VWS V14.01,2013-11-22 13:23:00,
2013-11-22 08:25:00,52.7,52.2,30.26,SSE,158,3.0,6.0,98,0.00,,---,0.07,VWS V14.01,2013-11-22 13:25:00,
2013-11-22 08:28:00,52.9,52.3,30.26,West,277,0.0,5.0,98,0.00,,---,0.07,VWS V14.01,2013-11-22 13:28:00,
2013-11-22 08:30:00,52.7,52.2,30.27,SW,217,2.0,6.0,98,0.00,,---,0.07,VWS V14.01,2013-11-22 13:30:00,
2013-11-22 08:33:00,52.9,52.3,30.26,WSW,254,1.0,10.0,98,0.00,,---,0.07,VWS V14.01,2013-11-22 13:33:00,
2013-11-22 08:35:00,52.7,52.2,30.27,SW,229,3.0,3.0,98,0.00,,---,0.07,VWS V14.01,2013-11-22 13:35:00,
2013-11-22 08:38:00,53.0,52.5,30.27,SSW,198,0.0,4.0,98,0.00,,---,0.07,VWS V14.01,2013-11-22 13:38:00,
2013-11-22 08:40:00,52.7,52.2,30.26,SW,236,3.0,6.0,98,0.00,,---,0.07,VWS V14.01,2013-11-22 13:40:00,
2013-11-22 08:43:00,53.0,52.5,30.27,SSW,210,5.0,7.0,98,0.00,,---,0.07,VWS V14.01,2013-11-22 13:43:00,
2013-11-22 08:45:00,52.7,52.2,30.27,South,186,1.0,4.0,98,0.00,,---,0.07,VWS V14.01,2013-11-22 13:45:00,
2013-11-22 08:48:00,53.0,52.5,30.26,SW,233,2.0,6.0,98,0.00,,---,0.07,VWS V14.01,2013-11-22 13:48:00,
2013-11-22 08:50:00,52.8,52.2,30.27,SW,229,0.0,3.0,98,0.00,,---,0.07,VWS V14.01,2013-11-22 13:50:00,
2013-11-22 08:53:00,53.1,52.5,30.26,SW,215,1.0,4.0,98,0.00,,---,0.07,VWS V14.01,2013-11-22 13:53:00,
2013-11-22 08:55:00,52.8,52.2,30.26,WSW,240,0.0,4.0,98,0.00,,---,0.07,VWS V14.01,2013-11-22 13:55:00,
2013-11-22 08:58:00,53.1,52.5,30.26,SW,233,6.0,6.0,98,0.00,,---,0.07,VWS V14.01,2013-11-22 13:58:00,
2013-11-22 09:00:00,52.8,52.2,30.27,WSW,238,1.0,5.0,98,0.00,,---,0.07,VWS V14.01,2013-11-22 14:00:00,
2013-11-22 09:03:00,53.1,52.5,30.27,WSW,252,2.0,6.0,98,0.00,,---,0.07,VWS V14.01,2013-11-22 14:03:00,
2013-11-22 09:05:00,52.8,52.2,30.26,West,262,2.0,6.0,98,0.00,,---,0.07,VWS V14.01,2013-11-22 14:05:00,
2013-11-22 09:09:00,53.1,52.5,30.27,WSW,253,1.0,7.0,98,0.00,,---,0.07,VWS V14.01,2013-11-22 14:09:00,
2013-11-22 09:10:00,52.8,52.2,30.26,WSW,241,4.0,6.0,98,0.00,,---,0.07,VWS V14.01,2013-11-22 14:10:00,
2013-11-22 09:14:00,53.2,52.7,30.27,SE,140,3.0,6.0,98,0.00,,---,0.07,VWS V14.01,2013-11-22 14:14:00,
2013-11-22 09:15:00,52.8,52.2,30.26,SW,224,3.0,6.0,98,0.00,,---,0.07,VWS V14.01,2013-11-22 14:15:00,
2013-11-22 09:19:00,53.2,52.7,30.27,WSW,241,2.0,6.0,98,0.00,,---,0.07,VWS V14.01,2013-11-22 14:19:00,
2013-11-22 09:20:00,52.9,52.3,30.26,South,183,1.0,7.0,98,0.00,,---,0.07,VWS V14.01,2013-11-22 14:20:00,
2013-11-22 09:24:00,53.2,52.7,30.27,West,272,0.0,4.0,98,0.00,,---,0.07,VWS V14.01,2013-11-22 14:24:00,
2013-11-22 09:25:00,52.8,52.2,30.26,West,263,0.0,4.0,98,0.00,,---,0.07,VWS V14.01,2013-11-22 14:25:00,
2013-11-22 09:29:00,53.3,52.8,30.27,WSW,252,0.0,5.0,98,0.00,,---,0.07,VWS V14.01,2013-11-22 14:29:00,
2013-11-22 09:30:00,52.9,52.3,30.26,SW,233,3.0,5.0,98,0.00,,---,0.07,VWS V14.01,2013-11-22 14:30:00,
2013-11-22 09:34:00,53.3,52.8,30.27,SSE,159,3.0,8.0,98,0.00,,---,0.07,VWS V14.01,2013-11-22 14:34:00,
2013-11-22 09:35:00,52.9,52.3,30.26,SW,224,2.0,10.0,98,0.00,,---,0.07,VWS V14.01,2013-11-22 14:35:00,
2013-11-22 09:39:00,53.4,52.8,30.27,WSW,246,1.0,7.0,98,0.00,,---,0.07,VWS V14.01,2013-11-22 14:39:00,
2013-11-22 09:40:00,53.0,52.5,30.27,SSW,200,1.0,4.0,98,0.00,,---,0.07,VWS V14.01,2013-11-22 14:40:00,
2013-11-22 09:44:00,53.4,52.8,30.27,SW,218,0.0,6.0,98,0.00,,---,0.07,VWS V14.01,2013-11-22 14:44:00,
2013-11-22 09:45:00,53.0,52.5,30.27,West,262,2.0,7.0,98,0.00,,---,0.07,VWS V14.01,2013-11-22 14:45:00,
2013-11-22 09:49:00,53.5,53.0,30.28,WSW,245,6.0,7.0,98,0.00,,---,0.07,VWS V14.01,2013-11-22 14:49:00,
2013-11-22 09:50:00,53.0,52.5,30.26,SW,227,2.0,6.0,98,0.00,,---,0.07,VWS V14.01,2013-11-22 14:50:00,
2013-11-22 09:54:00,53.5,53.0,30.28,South,184,3.0,6.0,98,0.00,,---,0.07,VWS V14.01,2013-11-22 14:54:00,
2013-11-22 09:55:00,53.1,52.5,30.26,SSE,161,1.0,4.0,98,0.00,,---,0.07,VWS V14.01,2013-11-22 14:55:00,
2013-11-22 09:59:00,53.6,53.0,30.28,South,172,4.0,6.0,98,0.00,,---,0.07,VWS V14.01,2013-11-22 14:59:00,
2013-11-22 10:00:00,53.1,52.5,30.26,SW,221,4.0,7.0,98,0.00,,---,0.07,VWS V14.01,2013-11-22 15:00:00,
2013-11-22 10:04:00,53.7,52.9,30.28,West,259,3.0,6.0,97,0.00,,---,0.07,VWS V14.01,2013-11-22 15:04:00,
2013-11-22 10:05:00,53.1,52.5,30.27,SSE,158,2.0,6.0,98,0.00,,---,0.07,VWS V14.01,2013-11-22 15:05:00,
2013-11-22 10:09:00,53.7,53.2,30.28,SW,227,4.0,4.0,98,0.00,,---,0.07,VWS V14.01,2013-11-22 15:09:00,
2013-11-22 10:10:00,53.1,52.5,30.27,SSW,198,2.0,7.0,98,0.00,,---,0.07,VWS V14.01,2013-11-22 15:10:00,
2013-11-22 10:14:00,53.8,53.0,30.28,WSW,243,2.0,7.0,97,0.00,,---,0.07,VWS V14.01,2013-11-22 15:14:00,
2013-11-22 10:15:00,53.2,52.7,30.27,WSW,252,2.0,6.0,98,0.00,,---,0.07,VWS V14.01,2013-11-22 15:15:00,
2013-11-22 10:19:00,53.8,53.0,30.28,SW,233,0.0,5.0,97,0.00,,---,0.07,VWS V14.01,2013-11-22 15:19:00,
2013-11-22 10:20:00,53.2,52.7,30.27,WNW,282,1.0,6.0,98,0.00,,---,0.07,VWS V14.01,2013-11-22 15:20:00,
2013-11-22 10:24:00,53.9,53.3,30.28,WSW,257,3.0,7.0,98,0.00,,---,0.07,VWS V14.01,2013-11-22 15:24:00,
2013-11-22 10:25:00,53.3,52.8,30.27,SW,219,0.0,4.0,98,0.00,,---,0.07,VWS V14.01,2013-11-22 15:25:00,
2013-11-22 10:29:00,54.0,53.2,30.28,South,186,3.0,8.0,97,0.00,,---,0.07,VWS V14.01,2013-11-22 15:29:00,
2013-11-22 10:30:00,53.3,52.8,30.27,SSW,205,1.0,5.0,98,0.00,,---,0.07,VWS V14.01,2013-11-22 15:30:00,
2013-11-22 10:34:00,54.1,53.3,30.28,SSW,207,0.0,6.0,97,0.00,,---,0.07,VWS V14.01,2013-11-22 15:34:00,
2013-11-22 10:35:00,53.3,52.8,30.27,SSW,203,0.0,8.0,98,0.00,,---,0.07,VWS V14.01,2013-11-22 15:35:00,
2013-11-22 10:39:00,54.2,53.4,30.28,SSW,197,2.0,6.0,97,0.00,,---,0.07,VWS V14.01,2013-11-22 15:39:00,
2013-11-22 10:40:00,53.4,52.8,30.27,WSW,246,3.0,7.0,98,0.00,,---,0.07,VWS V14.01,2013-11-22 15:40:00,
2013-11-22 10:44:00,54.3,53.5,30.28,SSW,203,3.0,8.0,97,0.00,,---,0.07,VWS V14.01,2013-11-22 15:44:00,
2013-11-22 10:45:00,53.4,52.8,30.27,WSW,245,3.0,6.0,98,0.00,,---,0.07,VWS V14.01,2013-11-22 15:45:00,
2013-11-22 10:49:00,54.5,53.7,30.28,SSW,197,1.0,4.0,97,0.00,,---,0.07,VWS V14.01,2013-11-22 15:49:00,
2013-11-22 10:50:00,53.5,53.0,30.28,West,276,2.0,7.0,98,0.00,,---,0.07,VWS V14.01,2013-11-22 15:50:00,
2013-11-22 10:54:00,54.6,53.8,30.28,SSW,198,1.0,5.0,97,0.00,,---,0.07,VWS V14.01,2013-11-22 15:54:00,
2013-11-22 10:55:00,53.5,53.0,30.28,SSE,156,1.0,6.0,98,0.00,,---,0.07,VWS V14.01,2013-11-22 15:55:00,
2013-11-22 10:59:00,54.7,53.9,30.27,SSW,207,2.0,5.0,97,0.00,,---,0.07,VWS V14.01,2013-11-22 15:59:00,
2013-11-22 11:00:00,53.6,53.0,30.28,West,271,1.0,6.0,98,0.00,,---,0.07,VWS V14.01,2013-11-22 16:00:00,
2013-11-22 11:04:00,54.9,54.1,30.27,SSW,207,1.0,6.0,97,0.00,,---,0.07,VWS V14.01,2013-11-22 16:04:00,
2013-11-22 11:05:00,53.7,52.9,30.28,SW,221,2.0,6.0,97,0.00,,---,0.07,VWS V14.01,2013-11-22 16:05:00,
2013-11-22 11:09:00,55.0,53.9,30.27,SE,139,1.0,7.0,96,0.00,,---,0.07,VWS V14.01,2013-11-22 16:09:00,
2013-11-22 11:10:00,53.7,53.2,30.28,SW,231,2.0,4.0,98,0.00,,---,0.07,VWS V14.01,2013-11-22 16:10:00,
2013-11-22 11:14:00,55.2,54.1,30.26,SSW,205,4.0,4.0,96,0.00,,---,0.07,VWS V14.01,2013-11-22 16:14:00,
2013-11-22 11:15:00,53.8,53.0,30.28,WSW,243,3.0,7.0,97,0.00,,---,0.07,VWS V14.01,2013-11-22 16:15:00,
2013-11-22 11:19:00,55.3,54.2,30.26,SSW,207,2.0,6.0,96,0.00,,---,0.07,VWS V14.01,2013-11-22 16:19:00,
2013-11-22 11:20:00,53.8,53.0,30.28,WSW,243,7.0,7.0,97,0.00,,---,0.07,VWS V14.01,2013-11-22 16:20:00,
2013-11-22 11:24:00,55.2,53.8,30.26,SW,219,5.0,6.0,95,0.00,,---,0.07,VWS V14.01,2013-11-22 16:24:00,
2013-11-22 11:25:00,53.9,53.3,30.28,WSW,254,6.0,7.0,98,0.00,,---,0.07,VWS V14.01,2013-11-22 16:25:00,
2013-11-22 11:29:00,55.3,54.2,30.26,SW,221,0.0,1.0,96,0.00,,---,0.07,VWS V14.01,2013-11-22 16:29:00,
2013-11-22 11:30:00,54.0,53.2,30.28,South,184,3.0,8.0,97,0.00,,---,0.07,VWS V14.01,2013-11-22 16:30:00,
2013-11-22 11:34:00,55.3,54.2,30.26,WSW,247,2.0,5.0,96,0.00,,---,0.07,VWS V14.01,2013-11-22 16:34:00,
2013-11-22 11:35:00,54.1,53.3,30.28,SSW,207,0.0,6.0,97,0.00,,---,0.07,VWS V14.01,2013-11-22 16:35:00,
2013-11-22 11:39:00,55.3,54.2,30.25,SSE,160,4.0,4.0,96,0.00,,---,0.07,VWS V14.01,2013-11-22 16:39:00,
2013-11-22 11:40:00,54.2,53.4,30.28,SSE,160,2.0,6.0,97,0.00,,---,0.07,VWS V14.01,2013-11-22 16:40:00,
2013-11-22 11:44:00,55.3,54.2,30.25,SW,214,1.0,1.0,96,0.00,,---,0.07,VWS V14.01,2013-11-22 16:44:00,
2013-11-22 11:45:00,54.3,53.5,30.28,SE,136,1.0,8.0,97,0.00,,---,0.07,VWS V14.01,2013-11-22 16:45:00,
2013-11-22 11:49:00,55.4,54.3,30.25,SW,228,3.0,3.0,96,0.00,,---,0.07,VWS V14.01,2013-11-22 16:49:00,
2013-11-22 11:50:00,54.5,53.7,30.28,SSW,197,1.0,4.0,97,0.00,,---,0.07,VWS V14.01,2013-11-22 16:50:00,
2013-11-22 11:54:00,55.4,54.3,30.25,WSW,248,0.0,0.0,96,0.00,,---,0.07,VWS V14.01,2013-11-22 16:54:00,
2013-11-22 11:55:00,54.6,53.8,30.28,SSW,198,1.0,5.0,97,0.00,,---,0.07,VWS V14.01,2013-11-22 16:55:00,
2013-11-22 11:59:00,55.6,54.5,30.25,WSW,237,2.0,2.0,96,0.00,,---,0.07,VWS V14.01,2013-11-22 16:59:00,
2013-11-22 12:00:00,54.7,53.9,30.27,SW,222,3.0,5.0,97,0.00,,---,0.07,VWS V14.01,2013-11-22 17:00:00,
2013-11-22 12:04:00,55.6,54.5,30.25,SSW,207,1.0,1.0,96,0.00,,---,0.07,VWS V14.01,2013-11-22 17:04:00,
2013-11-22 12:05:00,54.9,54.1,30.27,SW,215,1.0,6.0,97,0.00,,---,0.07,VWS V14.01,2013-11-22 17:05:00,
2013-11-22 12:09:00,55.6,54.2,30.25,SW,236,2.0,2.0,95,0.00,,---,0.07,VWS V14.01,2013-11-22 17:09:00,
2013-11-22 12:10:00,55.0,53.9,30.27,SE,139,1.0,7.0,96,0.00,,---,0.07,VWS V14.01,2013-11-22 17:10:00,
2013-11-22 12:14:00,55.5,54.1,30.25,SW,236,2.0,3.0,95,0.00,,---,0.07,VWS V14.01,2013-11-22 17:14:00,
2013-11-22 12:15:00,55.2,54.1,30.26,SSW,205,4.0,4.0,96,0.00,,---,0.07,VWS V14.01,2013-11-22 17:15:00,
2013-11-22 12:19:00,55.6,54.2,30.24,WSW,238,0.0,1.0,95,0.00,,---,0.07,VWS V14.01,2013-11-22 17:19:00,
2013-11-22 12:20:00,55.3,54.2,30.26,SSW,207,2.0,6.0,96,0.00,,---,0.07,VWS V14.01,2013-11-22 17:20:00,
2013-11-22 12:24:00,55.7,54.6,30.24,SW,222,1.0,2.0,96,0.01,,---,0.08,VWS V14.01,2013-11-22 17:24:00,
2013-11-22 12:25:00,55.2,53.8,30.26,SW,224,6.0,7.0,95,0.00,,---,0.07,VWS V14.01,2013-11-22 17:25:00,
2013-11-22 12:29:00,55.7,54.3,30.24,SW,236,0.0,2.0,95,0.01,,---,0.08,VWS V14.01,2013-11-22 17:29:00,
2013-11-22 12:30:00,55.3,54.2,30.26,South,187,0.0,7.0,96,0.00,,---,0.07,VWS V14.01,2013-11-22 17:30:00,
2013-11-22 12:34:00,55.7,54.3,30.23,SE,141,2.0,2.0,95,0.01,,---,0.08,VWS V14.01,2013-11-22 17:34:00,
2013-11-22 12:35:00,55.3,54.2,30.26,WSW,237,5.0,10.0,96,0.00,,---,0.07,VWS V14.01,2013-11-22 17:35:00,
2013-11-22 12:39:00,55.7,54.3,30.23,SSW,197,2.0,2.0,95,0.02,,---,0.09,VWS V14.01,2013-11-22 17:39:00,
2013-11-22 12:40:00,55.3,54.2,30.26,SSW,205,3.0,8.0,96,0.00,,---,0.07,VWS V14.01,2013-11-22 17:40:00,
2013-11-22 12:44:00,55.6,54.5,30.22,South,169,0.0,1.0,96,0.02,,---,0.09,VWS V14.01,2013-11-22 17:44:00,
2013-11-22 12:45:00,55.3,54.2,30.25,West,265,0.0,6.0,96,0.00,,---,0.07,VWS V14.01,2013-11-22 17:45:00,
2013-11-22 12:49:00,55.7,54.6,30.22,SW,230,4.0,4.0,96,0.02,,---,0.09,VWS V14.01,2013-11-22 17:49:00,
2013-11-22 12:50:00,55.4,54.3,30.25,SW,221,3.0,7.0,96,0.00,,---,0.07,VWS V14.01,2013-11-22 17:50:00,
2013-11-22 12:54:00,55.7,54.6,30.21,SSW,210,0.0,1.0,96,0.02,,---,0.09,VWS V14.01,2013-11-22 17:54:00,
2013-11-22 12:55:00,55.5,54.4,30.25,SSW,200,0.0,5.0,96,0.00,,---,0.07,VWS V14.01,2013-11-22 17:55:00,
2013-11-22 12:59:00,55.8,54.7,30.21,SSW,203,1.0,2.0,96,0.02,,---,0.09,VWS V14.01,2013-11-22 17:59:00,
2013-11-22 13:00:00,55.6,54.5,30.25,WSW,245,2.0,4.0,96,0.00,,---,0.07,VWS V14.01,2013-11-22 18:00:00,
2013-11-22 13:04:00,55.9,54.8,30.21,SSW,200,0.0,0.0,96,0.02,,---,0.09,VWS V14.01,2013-11-22 18:04:00,
2013-11-22 13:05:00,55.6,54.5,30.25,SSW,209,1.0,3.0,96,0.00,,---,0.07,VWS V14.01,2013-11-22 18:05:00,
2013-11-22 13:10:00,55.9,54.8,30.20,SSW,208,1.0,2.0,96,0.02,,---,0.09,VWS V14.01,2013-11-22 18:10:00,
2013-11-22 13:15:00,56.0,54.9,30.20,WSW,245,0.0,1.0,96,0.02,,---,0.09,VWS V14.01,2013-11-22 18:15:00,
2013-11-22 13:20:00,56.1,55.0,30.20,SSE,153,1.0,1.0,96,0.02,,---,0.09,VWS V14.01,2013-11-22 18:20:00,
2013-11-22 13:25:00,56.1,55.0,30.20,SSW,213,0.0,3.0,96,0.01,,---,0.09,VWS V14.01,2013-11-22 18:25:00,
2013-11-22 13:30:00,56.2,55.1,30.20,SW,233,1.0,2.0,96,0.01,,---,0.09,VWS V14.01,2013-11-22 18:30:00,
2013-11-22 13:35:00,56.2,55.1,30.20,WSW,248,0.0,0.0,96,0.01,,---,0.09,VWS V14.01,2013-11-22 18:35:00,
2013-11-22 13:40:00,56.2,55.1,30.20,SW,218,0.0,1.0,96,0.00,,---,0.09,VWS V14.01,2013-11-22 18:40:00,
2013-11-22 13:45:00,56.3,55.2,30.19,SW,221,2.0,3.0,96,0.00,,---,0.09,VWS V14.01,2013-11-22 18:45:00,
2013-11-22 13:50:00,56.3,55.2,30.19,SW,228,0.0,1.0,96,0.00,,---,0.09,VWS V14.01,2013-11-22 18:50:00,
2013-11-22 13:55:00,56.4,55.0,30.19,SW,226,2.0,4.0,95,0.00,,---,0.09,VWS V14.01,2013-11-22 18:55:00,
2013-11-22 14:00:00,56.5,55.4,30.19,WSW,251,0.0,0.0,96,0.00,,---,0.09,VWS V14.01,2013-11-22 19:00:00,
2013-11-22 14:05:00,56.5,55.1,30.19,West,262,1.0,1.0,95,0.00,,---,0.09,VWS V14.01,2013-11-22 19:05:00,
2013-11-22 14:10:00,56.6,55.2,30.19,West,261,0.0,0.0,95,0.00,,---,0.09,VWS V14.01,2013-11-22 19:10:00,
2013-11-22 14:15:00,56.7,55.3,30.19,West,279,1.0,1.0,95,0.00,,---,0.09,VWS V14.01,2013-11-22 19:15:00,
2013-11-22 14:20:00,56.7,55.6,30.19,West,274,0.0,0.0,96,0.00,,---,0.09,VWS V14.01,2013-11-22 19:20:00,
2013-11-22 14:25:00,56.7,55.6,30.19,West,276,0.0,0.0,96,0.00,,---,0.09,VWS V14.01,2013-11-22 19:25:00,
2013-11-22 14:30:00,56.7,55.3,30.19,West,268,0.0,1.0,95,0.00,,---,0.09,VWS V14.01,2013-11-22 19:30:00,
2013-11-22 14:35:00,56.6,55.5,30.19,WNW,285,0.0,0.0,96,0.00,,---,0.09,VWS V14.01,2013-11-22 19:35:00,
2013-11-22 14:40:00,56.5,55.4,30.19,West,277,0.0,0.0,96,0.00,,---,0.09,VWS V14.01,2013-11-22 19:40:00,
2013-11-22 14:45:00,56.5,55.4,30.19,West,277,0.0,0.0,96,0.00,,---,0.09,VWS V14.01,2013-11-22 19:45:00,
2013-11-22 14:50:00,56.5,55.4,30.18,ESE,121,0.0,0.0,96,0.00,,---,0.09,VWS V14.01,2013-11-22 19:50:00,
2013-11-22 14:55:00,56.3,55.2,30.18,SE,134,1.0,1.0,96,0.00,,---,0.09,VWS V14.01,2013-11-22 19:55:00,
2013-11-22 15:00:00,56.3,55.2,30.18,SSE,160,1.0,1.0,96,0.00,,---,0.09,VWS V14.01,2013-11-22 20:00:00,
2013-11-22 15:05:00,56.4,55.6,30.18,WSW,247,1.0,2.0,97,0.00,,---,0.09,VWS V14.01,2013-11-22 20:05:00,
2013-11-22 15:10:00,56.4,55.6,30.18,WNW,287,0.0,0.0,97,0.01,,---,0.10,VWS V14.01,2013-11-22 20:10:00,
2013-11-22 15:15:00,56.4,55.6,30.18,WNW,287,0.0,0.0,97,0.03,,---,0.12,VWS V14.01,2013-11-22 20:15:00,
2013-11-22 15:20:00,56.5,55.7,30.18,WNW,287,0.0,0.0,97,0.05,,---,0.14,VWS V14.01,2013-11-22 20:20:00,
2013-11-22 15:25:00,56.4,55.6,30.18,WNW,287,0.0,0.0,97,0.06,,---,0.15,VWS V14.01,2013-11-22 20:25:00,
2013-11-22 15:30:00,56.4,55.6,30.18,WNW,287,0.0,0.0,97,0.06,,---,0.15,VWS V14.01,2013-11-22 20:30:00,
2013-11-22 15:35:00,56.5,55.7,30.18,WNW,287,0.0,0.0,97,0.07,,---,0.16,VWS V14.01,2013-11-22 20:35:00,
2013-11-22 15:40:00,56.4,55.6,30.18,WNW,287,0.0,0.0,97,0.07,,---,0.16,VWS V14.01,2013-11-22 20:40:00,
2013-11-22 15:45:00,56.4,55.6,30.19,WSW,251,0.0,0.0,97,0.08,,---,0.17,VWS V14.01,2013-11-22 20:45:00,
2013-11-22 15:50:00,56.4,55.6,30.19,WSW,252,0.0,0.0,97,0.09,,---,0.18,VWS V14.01,2013-11-22 20:50:00,
2013-11-22 15:55:00,56.3,55.5,30.18,SSE,153,0.0,0.0,97,0.10,,---,0.19,VWS V14.01,2013-11-22 20:55:00,
2013-11-22 16:00:00,56.2,55.4,30.18,SW,224,0.0,0.0,97,0.10,,---,0.19,VWS V14.01,2013-11-22 21:00:00,
2013-11-22 16:05:00,56.2,55.4,30.18,SW,224,0.0,0.0,97,0.10,,---,0.19,VWS V14.01,2013-11-22 21:05:00,
2013-11-22 16:10:00,56.3,55.8,30.18,SW,224,0.0,0.0,98,0.09,,---,0.19,VWS V14.01,2013-11-22 21:10:00,
2013-11-22 16:15:00,56.2,55.4,30.18,SW,224,0.0,0.0,97,0.07,,---,0.19,VWS V14.01,2013-11-22 21:15:00,
2013-11-22 16:20:00,56.2,55.4,30.18,SSW,207,0.0,0.0,97,0.05,,---,0.19,VWS V14.01,2013-11-22 21:20:00,
2013-11-22 16:25:00,56.2,55.4,30.18,SSW,207,0.0,0.0,97,0.05,,---,0.19,VWS V14.01,2013-11-22 21:25:00,
2013-11-22 16:30:00,56.2,55.7,30.18,SSW,207,0.0,0.0,98,0.04,,---,0.19,VWS V14.01,2013-11-22 21:30:00,
2013-11-22 16:35:00,56.2,55.7,30.18,SSW,207,0.0,0.0,98,0.04,,---,0.19,VWS V14.01,2013-11-22 21:35:00,
2013-11-22 16:40:00,56.2,55.7,30.18,SW,223,0.0,0.0,98,0.03,,---,0.19,VWS V14.01,2013-11-22 21:40:00,
2013-11-22 16:45:00,56.2,55.7,30.18,SW,221,0.0,1.0,98,0.03,,---,0.19,VWS V14.01,2013-11-22 21:45:00,
2013-11-22 16:50:00,56.2,55.7,30.18,WSW,244,0.0,0.0,98,0.01,,---,0.19,VWS V14.01,2013-11-22 21:50:00,
2013-11-22 16:55:00,56.2,55.7,30.18,WSW,244,0.0,0.0,98,0.00,,---,0.19,VWS V14.01,2013-11-22 21:55:00,
2013-11-22 17:00:00,56.2,55.7,30.18,WSW,244,0.0,0.0,98,0.00,,---,0.19,VWS V14.01,2013-11-22 22:00:00,
2013-11-22 17:05:00,56.2,55.7,30.18,WSW,244,0.0,0.0,98,0.00,,---,0.19,VWS V14.01,2013-11-22 22:05:00,
2013-11-22 17:10:00,56.2,55.7,30.18,WSW,244,0.0,0.0,98,0.00,,---,0.19,VWS V14.01,2013-11-22 22:10:00,
2013-11-22 17:15:00,56.2,55.7,30.17,WSW,250,0.0,0.0,98,0.00,,---,0.19,VWS V14.01,2013-11-22 22:15:00,
2013-11-22 17:20:00,56.2,55.7,30.17,SSW,205,0.0,1.0,98,0.00,,---,0.19,VWS V14.01,2013-11-22 22:20:00,
2013-11-22 17:25:00,56.2,55.7,30.18,SW,235,0.0,0.0,98,0.00,,---,0.19,VWS V14.01,2013-11-22 22:25:00,
2013-11-22 17:30:00,56.2,55.7,30.18,SW,228,0.0,0.0,98,0.00,,---,0.19,VWS V14.01,2013-11-22 22:30:00,
2013-11-22 17:35:00,56.2,55.7,30.18,WSW,246,0.0,0.0,98,0.00,,---,0.19,VWS V14.01,2013-11-22 22:35:00,
2013-11-22 17:40:00,56.2,55.7,30.18,WSW,246,0.0,0.0,98,0.00,,---,0.19,VWS V14.01,2013-11-22 22:40:00,
2013-11-22 17:45:00,56.2,55.7,30.18,SSW,208,0.0,1.0,98,0.00,,---,0.19,VWS V14.01,2013-11-22 22:45:00,
2013-11-22 17:50:00,56.2,55.7,30.18,WNW,292,0.0,0.0,98,0.00,,---,0.19,VWS V14.01,2013-11-22 22:50:00,
2013-11-22 17:55:00,56.2,55.7,30.18,West,264,0.0,0.0,98,0.00,,---,0.19,VWS V14.01,2013-11-22 22:55:00,
2013-11-22 18:00:00,56.2,55.7,30.18,SW,214,0.0,0.0,98,0.00,,---,0.19,VWS V14.01,2013-11-22 23:00:00,
2013-11-22 18:05:00,56.2,55.7,30.18,SW,214,0.0,0.0,98,0.00,,---,0.19,VWS V14.01,2013-11-22 23:05:00,
2013-11-22 18:10:00,56.2,55.7,30.18,SW,225,0.0,0.0,98,0.00,,---,0.19,VWS V14.01,2013-11-22 23:10:00,
2013-11-22 18:15:00,56.2,55.7,30.18,SW,225,0.0,0.0,98,0.00,,---,0.19,VWS V14.01,2013-11-22 23:15:00,
2013-11-22 18:20:00,56.2,55.7,30.18,SW,225,0.0,0.0,98,0.00,,---,0.19,VWS V14.01,2013-11-22 23:20:00,
2013-11-22 18:25:00,56.1,55.5,30.19,SW,225,0.0,0.0,98,0.00,,---,0.19,VWS V14.01,2013-11-22 23:25:00,
2013-11-22 18:30:00,56.1,55.5,30.19,SW,225,0.0,0.0,98,0.00,,---,0.19,VWS V14.01,2013-11-22 23:30:00,
2013-11-22 18:35:00,56.1,55.5,30.18,SW,225,0.0,0.0,98,0.00,,---,0.19,VWS V14.01,2013-11-22 23:35:00,
2013-11-22 18:40:00,56.1,55.5,30.18,SW,225,0.0,0.0,98,0.00,,---,0.19,VWS V14.01,2013-11-22 23:40:00,
2013-11-22 18:45:00,56.1,55.5,30.19,SW,225,0.0,0.0,98,0.00,,---,0.19,VWS V14.01,2013-11-22 23:45:00,
2013-11-22 18:50:00,56.1,55.5,30.18,SW,225,0.0,0.0,98,0.00,,---,0.19,VWS V14.01,2013-11-22 23:50:00,
2013-11-22 18:55:00,56.1,55.5,30.19,SW,225,0.0,0.0,98,0.00,,---,0.19,VWS V14.01,2013-11-22 23:55:00,
2013-11-22 19:00:00,56.1,55.5,30.18,SSW,200,0.0,0.0,98,0.00,,---,0.19,VWS V14.01,2013-11-23 00:00:00,
2013-11-22 19:05:00,56.1,55.5,30.18,SSW,200,0.0,0.0,98,0.00,,---,0.19,VWS V14.01,2013-11-23 00:05:00,
2013-11-22 19:10:00,56.1,55.8,30.18,SSW,200,0.0,0.0,99,0.00,,---,0.19,VWS V14.01,2013-11-23 00:10:00,
2013-11-22 19:15:00,56.1,55.5,30.18,SSW,200,0.0,0.0,98,0.00,,---,0.19,VWS V14.01,2013-11-23 00:15:00,
2013-11-22 19:20:00,56.1,55.8,30.18,SSW,200,0.0,0.0,99,0.00,,---,0.19,VWS V14.01,2013-11-23 00:20:00,
2013-11-22 19:25:00,56.1,55.8,30.18,SSW,200,0.0,0.0,99,0.00,,---,0.19,VWS V14.01,2013-11-23 00:25:00,
2013-11-22 19:30:00,56.1,55.8,30.18,SSW,200,0.0,0.0,99,0.00,,---,0.19,VWS V14.01,2013-11-23 00:30:00,
2013-11-22 19:35:00,56.0,55.7,30.18,SSW,200,0.0,0.0,99,0.00,,---,0.19,VWS V14.01,2013-11-23 00:35:00,
2013-11-22 19:40:00,56.1,55.5,30.19,SW,225,0.0,0.0,98,0.00,,---,0.19,VWS V14.01,2013-11-23 00:40:00,
2013-11-22 19:41:00,56.0,55.5,30.18,SSW,200,0.0,0.0,98,0.00,,---,0.19,VWS V14.01,2013-11-23 00:41:00,
2013-11-22 19:45:00,56.1,55.5,30.18,SW,225,0.0,0.0,98,0.00,,---,0.19,VWS V14.01,2013-11-23 00:45:00,
2013-11-22 19:46:00,56.0,55.7,30.18,SSW,200,0.0,0.0,99,0.00,,---,0.19,VWS V14.01,2013-11-23 00:46:00,
2013-11-22 19:50:00,56.1,55.5,30.18,SW,225,0.0,0.0,98,0.00,,---,0.19,VWS V14.01,2013-11-23 00:50:00,
2013-11-22 19:51:00,55.9,55.6,30.18,SSW,200,0.0,0.0,99,0.00,,---,0.19,VWS V14.01,2013-11-23 00:51:00,
2013-11-22 19:55:00,56.1,55.5,30.18,SW,225,0.0,0.0,98,0.00,,---,0.19,VWS V14.01,2013-11-23 00:55:00,
2013-11-22 19:56:00,55.9,55.6,30.18,SSW,200,0.0,0.0,99,0.00,,---,0.19,VWS V14.01,2013-11-23 00:56:00,
2013-11-22 20:00:00,56.1,55.5,30.18,SSW,200,0.0,0.0,98,0.00,,---,0.19,VWS V14.01,2013-11-23 01:00:00,
2013-11-22 20:01:00,55.9,55.6,30.18,SSW,200,0.0,0.0,99,0.00,,---,0.19,VWS V14.01,2013-11-23 01:01:00,
2013-11-22 20:05:00,56.1,55.5,30.18,SSW,200,0.0,0.0,98,0.00,,---,0.19,VWS V14.01,2013-11-23 01:05:00,
2013-11-22 20:06:00,56.0,55.7,30.18,SSW,200,0.0,0.0,99,0.00,,---,0.19,VWS V14.01,2013-11-23 01:06:00,
2013-11-22 20:10:00,56.1,55.8,30.18,SSW,200,0.0,0.0,99,0.00,,---,0.19,VWS V14.01,2013-11-23 01:10:00,
2013-11-22 20:11:00,56.0,55.7,30.18,SSW,200,0.0,0.0,99,0.00,,---,0.19,VWS V14.01,2013-11-23 01:11:00,
2013-11-22 20:15:00,56.1,55.5,30.18,SSW,200,0.0,0.0,98,0.00,,---,0.19,VWS V14.01,2013-11-23 01:15:00,
2013-11-22 20:16:00,55.9,55.6,30.18,SSW,200,0.0,0.0,99,0.00,,---,0.19,VWS V14.01,2013-11-23 01:16:00,
2013-11-22 20:20:00,56.1,55.8,30.18,SSW,200,0.0,0.0,99,0.00,,---,0.19,VWS V14.01,2013-11-23 01:20:00,
2013-11-22 20:21:00,55.9,55.6,30.18,SSW,200,0.0,0.0,99,0.00,,---,0.19,VWS V14.01,2013-11-23 01:21:00,
2013-11-22 20:25:00,56.1,55.8,30.18,SSW,200,0.0,0.0,99,0.00,,---,0.19,VWS V14.01,2013-11-23 01:25:00,
2013-11-22 20:26:00,55.9,55.6,30.18,SSW,200,0.0,0.0,99,0.00,,---,0.19,VWS V14.01,2013-11-23 01:26:00,
2013-11-22 20:30:00,56.1,55.8,30.18,SSW,200,0.0,0.0,99,0.00,,---,0.19,VWS V14.01,2013-11-23 01:30:00,
2013-11-22 20:31:00,56.0,55.7,30.18,SSW,200,0.0,0.0,99,0.00,,---,0.19,VWS V14.01,2013-11-23 01:31:00,
2013-11-22 20:35:00,56.0,55.7,30.18,SSW,200,0.0,0.0,99,0.00,,---,0.19,VWS V14.01,2013-11-23 01:35:00,
2013-11-22 20:36:00,56.0,55.7,30.18,SSW,200,0.0,0.0,99,0.00,,---,0.19,VWS V14.01,2013-11-23 01:36:00,
2013-11-22 20:40:00,56.0,55.5,30.18,SSW,200,0.0,0.0,98,0.00,,---,0.19,VWS V14.01,2013-11-23 01:40:00,
2013-11-22 20:41:00,56.1,55.8,30.18,SSW,200,0.0,0.0,99,0.00,,---,0.19,VWS V14.01,2013-11-23 01:41:00,
2013-11-22 20:45:00,56.0,55.7,30.18,SSW,200,0.0,0.0,99,0.00,,---,0.19,VWS V14.01,2013-11-23 01:45:00,
2013-11-22 20:46:00,56.1,55.8,30.18,SSW,200,0.0,0.0,99,0.00,,---,0.19,VWS V14.01,2013-11-23 01:46:00,
2013-11-22 20:50:00,55.9,55.6,30.17,SSW,200,0.0,0.0,99,0.00,,---,0.19,VWS V14.01,2013-11-23 01:50:00,
2013-11-22 20:51:00,56.5,56.2,30.19,West,260,0.0,0.0,99,0.00,,---,0.19,VWS V14.01,2013-11-23 01:51:00,
2013-11-22 20:55:00,55.9,55.6,30.18,SSW,200,0.0,0.0,99,0.00,,---,0.19,VWS V14.01,2013-11-23 01:55:00,
2013-11-22 20:56:00,56.4,56.1,30.19,SW,235,0.0,1.0,99,0.00,,---,0.19,VWS V14.01,2013-11-23 01:56:00,
2013-11-22 21:00:00,55.9,55.6,30.18,SSW,200,0.0,0.0,99,0.00,,---,0.19,VWS V14.01,2013-11-23 02:00:00,
2013-11-22 21:01:00,56.4,56.1,30.19,SW,236,0.0,0.0,99,0.00,,---,0.19,VWS V14.01,2013-11-23 02:01:00,
2013-11-22 21:05:00,56.0,55.7,30.18,SSW,200,0.0,0.0,99,0.00,,---,0.19,VWS V14.01,2013-11-23 02:05:00,
2013-11-22 21:06:00,56.3,56.0,30.19,SW,236,0.0,0.0,99,0.00,,---,0.19,VWS V14.01,2013-11-23 02:06:00,
2013-11-22 21:10:00,56.0,55.7,30.18,SSW,200,0.0,0.0,99,0.00,,---,0.19,VWS V14.01,2013-11-23 02:10:00,
2013-11-22 21:11:00,56.3,56.0,30.19,SW,236,0.0,0.0,99,0.00,,---,0.19,VWS V14.01,2013-11-23 02:11:00,
2013-11-22 21:15:00,55.9,55.6,30.18,SSW,200,0.0,0.0,99,0.00,,---,0.19,VWS V14.01,2013-11-23 02:15:00,
2013-11-22 21:16:00,56.3,56.0,30.19,SW,236,0.0,1.0,99,0.00,,---,0.19,VWS V14.01,2013-11-23 02:16:00,
2013-11-22 21:20:00,55.9,55.6,30.18,SSW,200,0.0,0.0,99,0.00,,---,0.19,VWS V14.01,2013-11-23 02:20:00,
2013-11-22 21:21:00,56.5,56.2,30.20,NE,56,1.0,1.0,99,0.00,,---,0.19,VWS V14.01,2013-11-23 02:21:00,
2013-11-22 21:25:00,55.9,55.6,30.18,SSW,200,0.0,0.0,99,0.00,,---,0.19,VWS V14.01,2013-11-23 02:25:00,
2013-11-22 21:26:00,56.7,56.4,30.19,NE,47,2.0,5.0,99,0.00,,---,0.19,VWS V14.01,2013-11-23 02:26:00,
2013-11-22 21:30:00,56.0,55.7,30.18,SSW,200,0.0,0.0,99,0.00,,---,0.19,VWS V14.01,2013-11-23 02:30:00,
2013-11-22 21:31:00,56.8,56.5,30.19,West,262,0.0,1.0,99,0.00,,---,0.19,VWS V14.01,2013-11-23 02:31:00,
2013-11-22 21:35:00,56.0,55.7,30.18,SSW,200,0.0,0.0,99,0.00,,---,0.19,VWS V14.01,2013-11-23 02:35:00,
2013-11-22 21:36:00,56.8,56.0,30.20,WNW,285,2.0,2.0,97,0.00,,---,0.19,VWS V14.01,2013-11-23 02:36:00,
2013-11-22 21:40:00,56.1,55.8,30.18,SSW,200,0.0,0.0,99,0.00,,---,0.19,VWS V14.01,2013-11-23 02:40:00,
2013-11-22 21:41:00,56.7,55.6,30.20,NNE,27,0.0,1.0,96,0.00,,---,0.19,VWS V14.01,2013-11-23 02:41:00,
2013-11-22 21:45:00,56.1,55.8,30.18,SSW,200,0.0,0.0,99,0.00,,---,0.19,VWS V14.01,2013-11-23 02:45:00,
2013-11-22 21:46:00,56.6,55.5,30.20,NNE,28,1.0,1.0,96,0.00,,---,0.19,VWS V14.01,2013-11-23 02:46:00,
2013-11-22 21:50:00,56.4,56.1,30.19,West,260,0.0,1.0,99,0.00,,---,0.19,VWS V14.01,2013-11-23 02:50:00,
2013-11-22 21:51:00,56.3,55.2,30.20,NNE,33,0.0,2.0,96,0.00,,---,0.19,VWS V14.01,2013-11-23 02:51:00,
2013-11-22 21:55:00,56.5,56.2,30.19,SW,233,0.0,0.0,99,0.00,,---,0.19,VWS V14.01,2013-11-23 02:55:00,
2013-11-22 21:56:00,56.1,54.7,30.20,ENE,64,0.0,2.0,95,0.00,,---,0.19,VWS V14.01,2013-11-23 02:56:00,
2013-11-22 22:00:00,56.4,56.1,30.19,SW,236,0.0,1.0,99,0.00,,---,0.19,VWS V14.01,2013-11-23 03:00:00,
2013-11-22 22:01:00,56.0,54.6,30.20,NE,36,3.0,3.0,95,0.00,,---,0.19,VWS V14.01,2013-11-23 03:01:00,
2013-11-22 22:05:00,56.3,56.0,30.19,SW,236,0.0,1.0,99,0.00,,---,0.19,VWS V14.01,2013-11-23 03:05:00,
2013-11-22 22:06:00,55.9,54.5,30.20,West,279,1.0,2.0,95,0.00,,---,0.19,VWS V14.01,2013-11-23 03:06:00,
2013-11-22 22:10:00,56.3,56.0,30.19,SW,236,0.0,0.0,99,0.00,,---,0.19,VWS V14.01,2013-11-23 03:10:00,
2013-11-22 22:11:00,55.8,54.1,30.20,NNE,25,0.0,2.0,94,0.00,,---,0.19,VWS V14.01,2013-11-23 03:11:00,
2013-11-22 22:15:00,56.3,56.0,30.19,SW,236,0.0,0.0,99,0.00,,---,0.19,VWS V14.01,2013-11-23 03:15:00,
2013-11-22 22:16:00,55.8,54.1,30.20,NW,323,0.0,1.0,94,0.00,,---,0.19,VWS V14.01,2013-11-23 03:16:00,
2013-11-22 22:20:00,56.4,56.1,30.19,NE,34,0.0,1.0,99,0.00,,---,0.19,VWS V14.01,2013-11-23 03:20:00,
2013-11-22 22:21:00,55.6,54.2,30.21,West,263,0.0,2.0,95,0.00,,---,0.19,VWS V14.01,2013-11-23 03:21:00,
2013-11-22 22:25:00,56.7,56.4,30.19,North,349,0.0,2.0,99,0.00,,---,0.19,VWS V14.01,2013-11-23 03:25:00,
2013-11-22 22:26:00,55.5,53.5,30.21,NW,320,2.0,3.0,93,0.00,,---,0.19,VWS V14.01,2013-11-23 03:26:00,
2013-11-22 22:30:00,56.8,56.5,30.19,NE,49,0.0,5.0,99,0.00,,---,0.19,VWS V14.01,2013-11-23 03:30:00,
2013-11-22 22:31:00,55.3,53.3,30.21,NE,44,2.0,4.0,93,0.00,,---,0.19,VWS V14.01,2013-11-23 03:31:00,
2013-11-22 22:35:00,56.8,56.2,30.20,NNW,338,0.0,2.0,98,0.00,,---,0.19,VWS V14.01,2013-11-23 03:35:00,
2013-11-22 22:36:00,55.1,53.1,30.21,NNW,344,0.0,3.0,93,0.00,,---,0.19,VWS V14.01,2013-11-23 03:36:00,
2013-11-22 22:40:00,56.8,55.7,30.20,NNW,342,0.0,4.0,96,0.00,,---,0.19,VWS V14.01,2013-11-23 03:40:00,
2013-11-22 22:41:00,54.9,52.9,30.21,NNW,340,0.0,2.0,93,0.00,,---,0.19,VWS V14.01,2013-11-23 03:41:00,
2013-11-22 22:45:00,56.6,55.5,30.20,NNE,27,0.0,1.0,96,0.00,,---,0.19,VWS V14.01,2013-11-23 03:45:00,
2013-11-22 22:46:00,54.7,52.7,30.21,NNE,13,1.0,4.0,93,0.00,,---,0.19,VWS V14.01,2013-11-23 03:46:00,
2013-11-22 22:50:00,56.4,55.3,30.20,NNW,347,0.0,1.0,96,0.00,,---,0.19,VWS V14.01,2013-11-23 03:50:00,
2013-11-22 22:51:00,54.6,52.3,30.22,North,350,2.0,7.0,92,0.00,,---,0.19,VWS V14.01,2013-11-23 03:51:00,
2013-11-22 22:55:00,56.2,55.1,30.20,ENE,58,0.0,2.0,96,0.00,,---,0.19,VWS V14.01,2013-11-23 03:55:00,
2013-11-22 22:56:00,54.5,52.2,30.21,NE,39,0.0,5.0,92,0.00,,---,0.19,VWS V14.01,2013-11-23 03:56:00,
2013-11-22 23:00:00,56.0,54.6,30.20,ENE,66,0.0,2.0,95,0.00,,---,0.19,VWS V14.01,2013-11-23 04:00:00,
2013-11-22 23:01:00,54.5,52.2,30.21,NNE,25,0.0,7.0,92,0.00,,---,0.19,VWS V14.01,2013-11-23 04:01:00,
2013-11-22 23:05:00,55.9,54.5,30.20,NNE,15,0.0,3.0,95,0.00,,---,0.19,VWS V14.01,2013-11-23 04:05:00,
2013-11-22 23:06:00,54.3,52.0,30.21,NE,56,0.0,2.0,92,0.00,,---,0.19,VWS V14.01,2013-11-23 04:06:00,
2013-11-22 23:10:00,55.9,54.5,30.20,NNE,32,0.0,2.0,95,0.00,,---,0.19,VWS V14.01,2013-11-23 04:10:00,
2013-11-22 23:11:00,54.1,52.1,30.21,NNW,335,4.0,5.0,93,0.00,,---,0.19,VWS V14.01,2013-11-23 04:11:00,
2013-11-22 23:15:00,55.8,54.1,30.21,WSW,251,0.0,2.0,94,0.00,,---,0.19,VWS V14.01,2013-11-23 04:15:00,
2013-11-22 23:16:00,54.0,51.7,30.21,NE,40,2.0,6.0,92,0.00,,---,0.19,VWS V14.01,2013-11-23 04:16:00,
2013-11-22 23:20:00,55.7,54.3,30.21,WNW,283,0.0,2.0,95,0.00,,---,0.19,VWS V14.01,2013-11-23 04:20:00,
2013-11-22 23:21:00,53.8,51.8,30.22,NNW,329,2.0,2.0,93,0.00,,---,0.19,VWS V14.01,2013-11-23 04:21:00,
2013-11-22 23:25:00,55.5,53.5,30.21,NW,319,2.0,8.0,93,0.00,,---,0.19,VWS V14.01,2013-11-23 04:25:00,
2013-11-22 23:26:00,53.8,51.2,30.22,NE,50,0.0,4.0,91,0.00,,---,0.19,VWS V14.01,2013-11-23 04:26:00,
2013-11-22 23:30:00,55.4,53.4,30.21,NNW,328,1.0,7.0,93,0.00,,---,0.19,VWS V14.01,2013-11-23 04:30:00,
2013-11-22 23:31:00,53.7,51.4,30.22,NE,41,0.0,3.0,92,0.00,,---,0.19,VWS V14.01,2013-11-23 04:31:00,
2013-11-22 23:35:00,55.1,53.1,30.21,North,1,2.0,4.0,93,0.00,,---,0.19,VWS V14.01,2013-11-23 04:35:00,
2013-11-22 23:36:00,53.7,51.4,30.22,ENE,70,0.0,6.0,92,0.00,,---,0.19,VWS V14.01,2013-11-23 04:36:00,
2013-11-22 23:40:00,55.0,53.0,30.21,ENE,58,1.0,6.0,93,0.00,,---,0.19,VWS V14.01,2013-11-23 04:40:00,
2013-11-22 23:41:00,53.6,51.0,30.21,NE,42,3.0,5.0,91,0.00,,---,0.19,VWS V14.01,2013-11-23 04:41:00,
2013-11-22 23:45:00,54.8,52.8,30.21,NNW,348,0.0,4.0,93,0.00,,---,0.19,VWS V14.01,2013-11-23 04:45:00,
2013-11-22 23:46:00,53.6,51.0,30.21,North,354,0.0,4.0,91,0.00,,---,0.19,VWS V14.01,2013-11-23 04:46:00,
2013-11-22 23:50:00,54.6,52.6,30.21,NNW,336,2.0,6.0,93,0.00,,---,0.19,VWS V14.01,2013-11-23 04:50:00,
2013-11-22 23:51:00,53.5,51.2,30.21,NNW,334,1.0,3.0,92,0.00,,---,0.19,VWS V14.01,2013-11-23 04:51:00,
2013-11-22 23:55:00,54.6,52.6,30.21,NNW,333,0.0,7.0,93,0.00,,---,0.19,VWS V14.01,2013-11-23 04:55:00,
2013-11-22 23:56:00,53.3,51.0,30.21,ENE,58,1.0,2.0,92,0.00,,---,0.19,VWS V14.01,2013-11-23 04:56:00,